RH
42 84 100 100 100 100 100 100 100 100 100 100 100 100 100 100 100 100 100 96 100 100 100 94 100 97 94 89 85 77 71 79 85 80 74 62 54 49 60 65 72 88 89 81
57 42 95 100 100 100 100 100 100 100 100 100 100 100 100 100 100 100 100 100 100 100 100 100 98 99 100 100 89 93 90 70 69 75 75 78 77 70 63 59 59 71 83 80
63 69 64 81 100 100 100 100 100 100 100 100 100 100 100 100 100 100 100 100 100 100 100 100 100 98 100 100 96 88 80 71 67 70 76 73 73 80 83 75 65 72 79 91
59 54 64 62 72 86 100 100 100 100 100 100 100 100 100 100 100 100 100 100 100 100 100 100 100 100 100 100 100 100 100 94 92 90 94 95 100 96 90 70 59 57 63 78
90 60 53 71 77 79 97 99 100 100 100 100 100 100 100 100 100 100 100 100 100 100 100 100 100 100 97 96 100 100 100 100 100 94 94 99 98 99 83 71 63 57 65 70
60 64 57 62 71 82 90 92 86 94 100 100 100 100 100 100 100 100 99 95 99 100 100 100 100 100 100 96 90 91 96 97 98 97 96 99 88 83 76 72 66 62 62 72
70 67 75 61 70 90 90 85 85 74 83 100 100 100 100 100 100 100 100 100 97 94 95 99 97 97 92 93 91 90 88 85 79 86 87 81 77 72 68 79 80 73 79 82
69 79 87 99 95 73 78 81 90 94 89 92 91 93 97 100 100 100 100 95 87 86 86 86 85 84 82 82 83 85 86 85 82 74 68 62 62 66 72 72 70 76 64 62
55 73 90 100 100 85 82 80 91 95 96 100 99 100 100 87 76 78 82 80 79 78 76 68 62 61 66 66 63 60 63 63 67 64 55 55 58 63 66 64 64 66 85 84
59 80 93 100 91 90 89 94 100 86 84 97 99 100 93 90 82 74 66 65 61 55 51 52 56 59 58 55 55 57 53 49 47 43 41 42 45 49 50 48 57 65 93 98
74 81 92 95 100 75 90 99 100 100 100 90 95 92 82 78 70 66 59 54 48 43 49 61 56 53 50 44 37 35 34 32 33 30 30 34 46 54 55 57 57 60 66 79
84 98 100 100 98 97 93 91 84 94 99 94 88 83 67 60 66 60 54 50 57 66 69 73 60 49 36 31 31 33 29 23 20 21 23 29 39 38 37 38 41 42 46 52
88 97 100 99 98 88 86 86 78 87 86 78 88 68 62 77 78 67 73 70 81 71 63 49 39 36 30 26 21 17 16 18 19 21 23 26 34 39 41 42 45 48 51 52
92 99 100 98 88 92 92 89 86 82 80 82 77 84 80 84 96 99 91 74 66 60 51 42 34 28 21 19 14 11 6 6 9 11 15 23 29 32 35 39 41 42 53 56
89 99 96 94 88 77 70 81 89 78 88 64 99 95 97 99 88 85 68 52 44 44 50 46 37 27 21 15 6 3 3 3 5 6 8 12 18 26 33 41 56 59 64 55
98 100 94 92 88 93 100 100 94 94 100 97 94 92 91 74 63 54 48 47 51 75 72 47 51 36 20 13 7 5 4 3 5 6 7 10 13 16 25 40 45 56 66 72
100 100 100 94 93 100 100 99 100 93 86 88 87 81 78 74 64 53 46 60 62 97 84 83 60 41 31 20 10 6 7 7 9 12 14 17 20 25 32 37 39 58 72 73
100 100 99 96 99 88 78 82 84 89 89 82 81 82 74 60 56 50 53 64 80 95 86 69 70 62 51 31 23 23 17 15 19 25 28 30 45 42 44 53 68 78 82 83
94 81 71 74 79 83 80 78 79 76 79 91 94 73 70 61 51 57 56 70 99 100 94 78 80 68 62 60 44 32 31 28 37 46 53 79 88 89 92 96 99 100 100 100
81 85 88 84 78 82 80 77 70 71 85 100 92 75 66 53 56 56 71 68 100 100 96 85 95 76 66 56 61 59 52 60 77 84 91 96 100 100 100 100 100 100 99 100
87 84 81 83 84 78 67 66 74 90 95 92 79 67 58 53 55 62 69 73 86 95 86 94 84 100 90 83 74 65 61 63 76 67 79 96 87 89 100 86 83 81 94 84
96 89 86 80 76 69 75 77 87 100 97 86 77 71 61 51 51 63 74 79 87 99 86 91 83 78 100 96 100 98 98 97 90 97 90 94 92 89 83 93 100 100 100 100
100 98 89 81 71 76 84 88 93 100 100 93 84 74 66 60 72 63 73 81 85 98 100 99 85 75 98 90 90 93 99 92 92 94 88 97 100 100 100 95 94 91 75 70
98 96 90 81 80 84 85 92 100 100 98 90 88 73 68 88 97 76 66 81 87 86 100 100 91 79 76 80 88 98 96 93 81 80 87 90 88 84 78 75 73 72 75 80
98 91 87 80 80 89 84 98 100 100 97 87 69 74 79 88 94 84 73 78 96 94 86 87 97 97 90 81 72 78 83 91 97 97 95 91 92 93 92 90 89 88 92 95
99 90 94 86 95 82 82 99 100 100 93 78 73 62 73 81 93 94 75 78 90 92 90 85 91 90 94 94 93 98 99 100 99 90 86 86 86 89 93 95 96 100 100 100
Wind_Speed
106 112 106 100 98 96 92 89 87 88 89 88 86 81 83 87 82 80 80 80 80 81 84 82 81 82 83 82 79 79 78 75 74 74 73 73 74 73 70 72 70 67 73 73
95 104 108 105 101 96 93 87 84 83 83 82 82 77 80 81 80 78 77 79 82 79 81 82 81 79 77 78 78 75 76 79 76 76 78 78 79 76 75 76 75 73 72 74
92 90 99 104 106 102 93 88 88 86 83 80 78 75 76 78 78 77 77 77 77 77 79 81 79 77 78 79 82 81 80 80 80 80 81 82 83 82 80 78 76 71 67 66
88 88 91 98 102 100 99 92 89 86 81 77 78 74 78 76 77 78 79 78 75 76 76 77 78 77 78 79 80 82 85 85 84 84 83 84 86 86 85 84 81 76 74 76
81 84 84 88 90 94 96 98 96 90 84 81 78 73 82 79 78 78 79 79 79 79 79 80 81 82 83 84 85 87 89 91 93 92 91 92 91 89 88 88 86 82 77 72
78 79 79 81 83 82 88 95 96 95 92 84 81 77 79 81 80 80 85 85 82 82 83 82 84 86 89 91 93 95 94 94 96 99 99 97 97 95 92 90 87 82 82 75
70 72 72 73 74 78 77 84 90 90 88 87 87 83 84 85 85 85 86 86 87 86 87 87 89 92 95 97 98 99 100 102 104 104 103 102 98 96 93 88 87 83 80 82
67 74 73 71 71 71 69 66 75 82 85 87 87 87 90 89 88 88 90 91 91 92 93 95 97 99 101 103 104 105 107 109 110 110 109 108 103 98 94 90 87 88 86 85
56 64 71 72 72 70 65 61 63 66 71 77 83 87 88 90 93 92 92 95 97 99 101 103 104 106 107 108 109 108 108 108 107 108 107 105 101 98 96 95 93 90 87 85
51 55 65 69 70 68 64 62 58 60 60 64 69 78 85 85 84 85 87 89 91 92 93 93 94 94 97 100 102 103 106 107 109 110 108 106 103 100 98 96 93 91 92 93
48 52 53 62 68 62 57 59 65 64 59 59 62 70 72 75 76 76 77 78 78 77 78 81 87 92 95 98 101 102 105 107 107 107 106 104 103 102 100 97 93 89 88 88
44 46 45 46 51 53 53 52 53 59 66 63 61 66 64 63 64 64 66 66 62 65 70 75 82 88 92 96 97 97 99 101 98 96 97 98 101 99 95 91 85 80 78 76
40 42 43 42 42 46 49 50 50 52 53 52 56 52 48 54 59 58 57 58 61 64 68 74 78 83 87 88 91 89 88 91 96 99 98 98 98 98 93 90 86 82 78 70
36 39 41 40 40 40 42 44 44 44 44 46 42 48 40 42 45 50 53 53 57 61 66 69 69 72 72 66 67 70 70 69 73 78 81 85 85 85 82 79 79 77 78 74
27 31 34 35 37 36 34 32 33 32 31 29 33 35 37 38 40 44 48 49 50 49 52 52 52 55 52 53 47 43 47 50 53 56 62 63 63 65 66 63 64 67 68 65
27 28 29 29 29 27 27 29 28 26 28 29 30 30 32 35 36 36 34 33 34 30 37 43 46 51 49 42 38 35 33 32 34 38 41 44 47 49 50 52 53 52 50 54
27 29 29 27 25 26 27 27 26 25 24 24 27 29 25 22 24 27 29 31 24 24 33 35 40 42 40 37 28 20 17 14 14 19 24 26 28 31 33 36 39 38 39 43
27 27 26 24 25 25 24 23 23 25 25 25 23 21 22 26 28 31 25 27 18 23 30 28 29 29 27 25 19 12 7 2 2 5 8 11 9 11 15 16 18 18 20 25
24 24 23 25 24 22 23 24 24 24 24 21 21 18 23 24 25 23 25 20 15 22 23 21 27 25 24 20 18 15 12 10 15 17 15 21 19 17 15 13 12 16 14 11
26 24 22 22 21 22 22 23 22 23 25 24 23 22 29 24 19 22 22 17 12 14 17 17 23 26 22 23 19 19 21 24 28 26 24 27 30 24 24 19 15 19 22 19
22 20 20 20 22 21 19 20 21 25 26 27 26 25 27 24 26 22 19 15 8 16 13 17 16 18 22 23 25 25 26 23 17 14 18 14 13 14 17 12 15 16 22 28
21 19 19 20 21 17 13 17 23 26 28 24 23 24 28 30 29 19 13 10 7 14 17 20 19 11 11 13 13 17 19 20 18 15 12 8 6 5 4 8 12 17 23 29
24 22 20 22 20 16 14 16 24 28 28 27 28 27 30 31 24 13 9 8 8 11 15 18 18 6 4 6 8 7 10 11 9 10 7 1 3 6 10 14 17 22 26 28
27 25 23 23 19 15 15 17 20 30 28 29 29 29 24 23 19 16 7 6 9 8 10 15 15 14 10 7 6 7 8 9 10 10 10 10 11 12 14 17 21 24 28 32
29 27 26 23 19 17 16 20 20 23 24 22 24 21 20 18 17 19 11 8 8 10 10 11 13 13 11 9 8 7 8 9 11 11 12 14 16 18 21 24 28 32 36 39
29 26 27 22 22 18 14 17 21 24 25 24 25 23 22 17 15 17 18 13 12 13 13 11 12 14 14 13 11 10 10 10 12 13 16 20 23 26 29 31 32 31 30 32
Wind_Direction
218 219 220 221 222 223 225 228 230 232 234 236 239 239 243 247 248 249 249 250 251 251 252 255 255 259 262 263 262 262 263 267 269 272 273 274 273 273 271 275 285 279 280 279
217 218 221 222 223 224 225 225 226 229 232 234 236 238 240 246 248 248 249 250 250 251 255 256 256 258 260 261 263 263 262 262 265 270 273 273 275 276 277 279 282 277 273 275
217 217 220 222 223 224 223 226 227 228 230 232 236 237 240 242 245 247 248 248 250 252 254 256 257 258 258 261 263 263 265 267 267 267 270 274 274 276 277 280 280 274 273 271
218 218 219 222 223 224 225 225 226 229 230 232 235 237 240 242 244 246 248 249 252 255 257 259 259 259 261 263 264 265 266 267 267 268 268 269 273 274 276 278 277 272 267 269
218 220 220 221 223 224 226 228 229 230 231 232 234 234 243 241 242 245 248 249 251 253 254 256 257 258 259 259 260 261 264 267 269 269 269 270 272 273 275 277 276 275 269 266
219 222 223 223 223 225 227 228 230 232 233 233 235 234 242 243 242 245 247 249 251 252 254 255 258 260 261 261 262 263 263 265 267 268 269 271 272 273 273 274 273 270 268 265
218 220 223 224 223 224 227 228 230 232 233 234 237 238 239 245 246 246 246 248 251 252 253 255 257 259 260 262 264 265 266 267 268 269 270 270 271 272 272 272 271 269 269 271
214 218 219 221 224 226 226 231 233 234 235 237 239 240 241 244 248 252 252 252 253 255 256 257 258 259 261 263 265 267 268 268 268 269 270 271 271 270 269 269 268 268 269 270
213 215 218 220 225 229 231 227 229 232 235 238 240 242 244 246 248 251 254 257 259 261 263 263 264 266 268 268 268 269 268 268 268 268 268 268 268 268 268 269 268 268 269 269
209 212 217 222 226 229 230 229 233 239 236 238 241 244 246 249 252 254 256 259 261 264 266 267 268 268 267 267 267 267 267 268 267 267 267 267 268 268 267 268 268 269 270 269
211 212 216 221 228 231 232 233 232 236 241 242 242 246 247 250 255 258 261 263 265 267 268 267 267 268 268 268 268 267 267 268 267 268 269 270 270 269 268 268 268 267 267 266
207 209 213 221 226 229 232 236 238 239 244 247 250 252 254 258 260 262 264 267 269 269 270 270 270 271 272 272 273 274 273 272 272 270 268 266 266 268 268 268 268 267 266 264
205 208 212 215 220 221 224 229 235 237 240 245 248 255 259 262 264 266 269 272 272 273 275 276 277 278 279 281 281 279 274 270 268 267 267 266 265 266 267 267 266 265 264 263
211 217 220 222 224 226 228 231 236 241 244 246 252 256 258 260 266 268 270 273 275 278 280 282 285 286 284 285 281 277 272 267 263 262 262 261 262 264 265 263 264 262 260 260
190 202 211 214 218 220 223 225 228 232 234 238 244 252 256 259 262 267 273 279 282 285 289 291 297 301 302 301 294 282 278 268 262 258 258 257 257 257 258 257 255 255 253 253
177 183 188 196 202 203 208 215 220 221 232 238 241 247 255 259 266 273 282 296 296 294 307 306 316 312 314 314 307 299 288 267 259 255 251 250 249 250 249 247 246 244 243 242
182 186 193 196 195 198 209 217 223 223 223 229 238 245 251 262 279 285 293 302 298 302 310 318 318 319 326 325 317 309 301 275 256 248 245 242 244 244 243 234 230 231 237 242
180 188 195 200 204 203 199 197 203 214 230 233 237 245 261 269 277 291 299 302 308 306 310 317 335 338 342 346 346 347 3 34 141 179 208 198 179 216 217 213 219 231 242 247
194 190 179 175 178 185 196 207 218 224 219 221 233 243 261 275 283 293 298 310 305 299 310 322 349 354 357 17 20 40 60 82 98 95 105 102 102 100 108 120 145 161 176 215
171 171 177 185 191 197 209 217 215 215 214 226 241 260 275 281 287 300 298 314 287 289 310 329 342 348 356 9 31 44 56 75 89 96 104 113 109 109 118 123 150 193 190 210
182 185 192 197 199 209 214 215 215 213 222 237 246 264 279 296 305 304 293 315 277 277 293 321 329 329 349 9 18 30 37 53 69 79 95 94 103 132 147 171 187 223 227 228
194 199 202 206 206 212 218 220 213 221 231 242 259 274 289 297 303 299 294 311 311 267 299 312 317 336 326 10 11 23 29 36 47 48 47 56 17 354 286 235 243 263 266 262
204 211 215 215 211 218 227 226 221 231 239 254 262 280 297 301 304 284 286 315 328 303 294 302 316 313 275 332 356 354 353 1 20 28 42 246 262 278 284 283 277 273 273 269
214 221 221 215 216 230 239 237 230 233 241 256 270 282 292 299 291 283 277 303 316 304 284 294 315 335 358 348 359 338 340 341 4 12 358 341 328 318 309 305 304 304 303 298
222 224 222 218 216 230 242 240 240 247 251 257 267 279 297 293 285 279 277 276 280 290 298 294 298 307 320 327 333 340 340 339 333 327 320 316 314 313 310 305 299 296 295 297
225 227 222 216 224 232 244 244 246 249 251 258 262 273 289 296 282 273 278 274 274 287 291 285 279 282 289 296 303 307 304 304 311 319 325 322 316 308 305 304 306 307 307 305